Location: Bujaleuf
(45.7977°N, 1.6288°E)
Time: 01:04:56
(UTC+00:00)

Daily predictions for brighter satellites

Satellite Brightness Start Highest point End
(mag) Time Altitude Azimuth Time Altitude Azimuth Time Altitude Azimuth
Cosmos 1867 3.5 00:05:01 57° SSW 00:06:09 79° SE 00:11:40 10° NE
Cosmos 1461 2.8 00:02:19 10° NW 00:06:31 88° SW 00:06:31 88° SW
Cosmos 2221 Rocket 3.4 00:06:47 78° S 00:07:04 88° E 00:11:30 10° N
Cosmos 1674 Rocket 3.7 00:06:55 59° ESE 00:07:08 60° E 00:11:24 10° NNE
Cosmos 2298 Rocket 4.5 00:07:41 42° SE 00:08:30 46° ESE 00:13:34 10° NNE
USA 306 4.2 00:11:52 29° E 00:11:52 29° E 00:14:23 10° ENE
Cosmos 1674 2.8 00:10:51 70° NNW 00:10:51 70° NNW 00:14:18 10° N
Cosmos 1238 Rocket 3.5 00:10:07 10° N 00:12:06 39° N 00:12:06 39° N
USA 307 4.2 00:15:20 27° E 00:15:20 27° E 00:17:48 10° ENE
ATLAS CENTAUR R/B 2.5 00:10:05 10° NW 00:13:59 35° W 00:13:59 35° W
SL-16 R/B 4.3 00:16:08 12° ESE 00:17:53 14° E 00:20:33 10° ENE
Cosmos 2322 Rocket 4.4 00:16:56 10° W 00:20:57 20° NW 00:24:58 10° N
Cosmos 1980 4.2 00:20:38 41° SE 00:21:47 46° ESE 00:27:10 10° NE
Cosmos 2333 Rocket 3.1 00:19:42 25° WSW 00:22:26 42° NW 00:27:50 10° NNE
Cosmos 1378 Rocket 3.4 00:22:19 74° SSE 00:22:41 83° E 00:27:09 10° N
ATLAS 5 CENTAUR R/B 3.0 00:09:56 10° NW 00:22:58 89° SW 00:24:40 41° SE
Cosmos 2322 4.2 00:20:48 35° WSW 00:23:02 56° WNW 00:28:42 10° NNE
Cosmos 468 4.4 00:17:54 10° NNW 00:23:09 87° ENE 00:24:27 53° SSE
CZ-4C R/B 3.0 00:16:07 10° NW 00:23:26 75° SW 00:27:53 31° SSE
Cosmos 1844 Rocket 4.4 00:22:45 10° WNW 00:26:13 17° W 00:26:32 17° WSW
USA 215 4.0 00:21:17 10° NE 00:27:34 52° NNW 00:33:53 10° W
NOSS 0 Rocket 4.0 00:29:22 46° S 00:31:17 71° ESE 00:37:30 10° NNE
PSLV R/B 4.0 00:30:02 10° N 00:34:17 52° WNW 00:35:00 46° WSW
USA 32 4.3 00:35:15 42° SE 00:36:45 58° E 00:41:55 10° NNE
Meteor 2-10 Rocket 4.2 00:33:08 10° N 00:38:41 52° ENE 00:41:17 29° SE
Cosmos 1975 Rocket 4.3 00:39:39 29° ESE 00:40:41 32° E 00:44:40 10° NNE
Cosmos 2151 Rocket 4.1 00:36:33 10° NNW 00:40:43 43° W 00:40:53 43° W
Cosmos 1745 Rocket 3.9 00:36:17 10° NNW 00:42:30 73° W 00:44:35 43° SSW
Okean 2 4.5 00:42:13 31° W 00:42:35 32° WNW 00:46:17 10° N
ADEOS Rocket 3.8 00:42:18 28° WSW 00:43:23 30° W 00:48:30 10° NNW
Cosmos 839 Rocket 4.2 00:37:24 10° NW 00:43:49 88° ENE 00:49:12 20° SE
USA 308 3.0 00:44:46 56° ESE 00:44:46 56° ESE 00:48:36 10° ENE
Okean 2 Rocket 4.0 00:40:52 10° NNW 00:44:59 35° W 00:45:13 35° W
Cosmos 2219 Rocket 3.3 00:42:56 23° WSW 00:45:45 37° NW 00:50:56 10° NNE
Cosmos 1025 Rocket 4.3 00:47:03 27° ESE 00:48:10 30° E 00:51:57 10° NNE
Meteor 2-12 Rocket 4.3 00:44:01 10° N 00:50:07 88° W 00:52:26 40° S
Meteor 1-16 Rocket 4.4 00:44:28 10° NNW 00:50:20 61° W 00:52:02 44° SSW
GP-B 3.2 00:52:42 10° N 00:57:09 71° E 00:58:07 52° SSE
Lacrosse 5 2.8 00:58:31 31° SE 00:59:04 32° SE 01:03:34 10° ENE
CZ-2D R/B 3.1 00:55:14 10° NNE 01:00:12 37° E 01:02:28 26° SE
Cosmos 1300 2.5 00:57:31 10° N 01:01:20 82° W 01:01:27 80° SW
SL-14 R/B 3.4 01:02:27 56° W 01:02:40 57° WNW 01:06:29 10° N
USA 267 3.7 01:02:15 36° SSW 01:03:20 39° SW 01:09:24 10° WNW
Cosmos 883 Rocket 4.5 01:04:14 39° SSW 01:06:46 79° W 01:13:09 10° N
Cosmos 371 Rocket 3.5 01:06:03 44° WSW 01:07:23 61° WNW 01:12:13 10° NNE
Cosmos 2150 Rocket 4.2 01:06:08 40° SW 01:07:47 60° WNW 01:12:55 10° NNE
USA 305 2.8 01:07:08 58° WSW 01:07:55 83° NNW 01:12:07 10° NE
NOSS 2-2 (C) 4.4 01:04:01 10° NW 01:09:12 60° SW 01:12:46 29° SSE
USA 229 DEB 4.0 01:03:29 10° NW 01:10:45 59° WSW 01:15:06 27° S
USA 229 4.0 01:03:35 10° NW 01:10:50 59° WSW 01:15:14 27° S
Cosmos 2237 Rocket 2.2 01:11:28 39° SW 01:13:38 77° WNW 01:19:22 10° NNE
COSMOS 2428 4.0 01:12:17 19° WSW 01:15:31 32° NW 01:20:36 10° N
Cosmos 405 Rocket 4.2 01:18:03 23° W 01:18:26 23° WNW 01:21:30 10° NNW
Cosmos 304 Rocket 3.8 01:17:17 46° SW 01:18:41 76° WNW 01:23:31 10° NNE
Cosmos 1437 Rocket 4.1 01:16:31 10° NW 01:19:16 25° W 01:19:16 25° W
SL-16 R/B 3.0 01:14:42 14° SE 01:20:00 59° ENE 01:26:08 10° N
Lacrosse 5 rocket 2.6 01:21:54 25° SE 01:21:57 25° SE 01:25:15 10° ENE
Cosmos 1125 Rocket 4.2 01:20:00 31° WSW 01:22:00 45° WNW 01:27:00 10° N
Okean 1 Rocket 4.1 01:19:47 10° NNW 01:23:40 30° W 01:24:05 30° W
SME Rocket 3.0 01:24:34 47° S 01:25:39 75° WSW 01:30:38 10° NNW
Cosmos 1953 3.6 01:23:07 10° NNW 01:26:25 25° W 01:26:25 25° W
Cosmos 2074 Rocket 4.4 01:22:42 10° N 01:28:58 62° ENE 01:33:59 16° SSE
Resurs 1-4 Rocket 2.2 01:24:15 10° NNE 01:29:31 68° ESE 01:31:56 32° S
Cosmos 2297 4.4 01:27:40 10° NNW 01:33:22 56° ENE 01:38:58 10° SE
Cosmos 1943 Rocket 2.4 01:27:44 10° NNW 01:33:25 70° ENE 01:39:04 10° SE
MOZ.5/SAFIR/RUBIN 5/SL-8 4.1 01:33:59 39° SW 01:35:10 49° W 01:39:47 10° NNW
Cosmos 1709 Rocket 4.4 01:31:05 10° NNW 01:36:52 45° W 01:39:18 31° SW
Cosmos 2315 Rocket 4.3 01:35:34 30° SW 01:38:32 54° WNW 01:44:48 10° N
Cosmos 2184 Rocket 4.1 01:37:35 10° N 01:43:53 76° E 01:48:45 17° SSE
Cosmos 2278 Rocket 3.1 01:39:30 10° NW 01:44:20 29° WSW 01:45:23 27° WSW
ADEOS II 2.7 01:40:18 10° NNE 01:45:25 50° E 01:48:40 22° SSE
IDEFIX/ARIANE 42P 3.5 01:41:16 10° NNE 01:46:17 42° E 01:49:52 18° SSE
USA 306 3.6 01:47:33 22° W 01:50:01 49° NNW 01:54:06 10° NE
Cosmos 2084 Rocket 3.1 01:49:15 43° SW 01:50:23 76° NW 01:54:11 10° NE
USA 307 3.5 01:51:04 22° W 01:53:30 52° NNW 01:57:36 10° NE
Thor Agena Rocket 4.3 01:48:38 10° N 01:53:36 43° WNW 01:56:09 25° WSW
ERBS 3.2 01:54:54 28° WNW 01:55:53 36° NNW 01:58:46 10° NE
NPP 3.6 01:52:07 10° NNE 01:57:33 86° WNW 02:00:36 27° SSW
Cosmos 2369 Rocket 3.3 01:53:13 10° NNW 01:58:35 45° ENE 02:03:56 10° SE
SL-16 R/B 2.2 01:58:00 28° SSW 02:01:07 89° ESE 02:06:50 10° NNE
Cosmos 1455 Rocket 3.9 01:57:59 10° NNW 02:02:01 34° W 02:03:15 29° WSW
Cosmos 614 Rocket 4.2 01:57:14 10° NNW 02:02:26 71° ENE 02:07:38 10° SSE
CZ-4 R/B 3.9 01:57:53 10° N 02:02:29 61° WNW 02:04:41 29° SW
Cosmos 2228 4.2 01:58:29 10° N 02:02:38 40° ENE 02:06:43 10° SSE
EO 1 Del DPAF 3.7 02:00:09 10° NNE 02:03:34 48° E 02:05:17 25° SSE
Meteor 1-28 Rocket 3.3 02:03:36 20° SSE 02:06:06 74° ENE 02:09:50 10° N
COSMOS 2455 3.2 02:04:48 22° S 02:08:37 59° ESE 02:14:32 10° NE
Cosmos 1536 Rocket 3.6 02:08:02 25° S 02:10:35 82° E 02:14:59 10° N
CZ-4C R/B 4.3 02:06:16 10° WNW 02:11:21 19° WSW 02:12:59 18° WSW
Cosmos 1975 Rocket 4.5 02:16:47 20° WSW 02:18:34 25° WNW 02:22:18 10° NNW
Nadezhda 1 Rocket 4.0 02:15:05 18° S 02:20:00 89° W 02:26:20 10° N
Meteor 1-24 Rocket 4.2 02:17:04 23° SW 02:20:15 46° WNW 02:25:32 10° N
UNK 4.0 02:19:09 23° SSW 02:21:45 49° W 02:26:15 10° NNW
MSX 4.1 02:17:41 10° NNE 02:23:28 69° ESE 02:28:25 14° S
USA 308 4.1 02:20:30 11° W 02:24:16 38° NNW 02:28:12 10° NE
Cosmos 1025 Rocket 4.4 02:23:55 19° WSW 02:25:46 25° WNW 02:29:22 10° NNW
MOS 1 Rocket 3.3 02:23:22 22° SSW 02:25:50 50° W 02:30:02 10° NNW
Cosmos 1455 2.6 02:22:21 10° NNW 02:25:51 41° W 02:27:23 26° SW
YAOGAN 11 4.5 02:23:45 22° SSW 02:26:16 47° W 02:30:38 10° NNW
Cosmos 1271 Rocket 2.6 02:25:55 10° NNW 02:29:44 73° W 02:32:45 16° S
Cosmos 1606 Rocket 4.2 02:29:29 10° N 02:33:52 57° ENE 02:38:10 10° SSE
ALOS 4.3 02:33:47 10° NE 02:37:33 24° E 02:41:16 10° SSE
CZ-2C R/B 4.4 02:35:27 10° NE 02:39:43 26° E 02:43:53 10° SSE
CZ-2D R/B 3.1 02:35:24 10° N 02:40:10 33° WNW 02:43:47 16° WSW
Lacrosse 5 2.3 02:37:42 15° WSW 02:41:49 58° NW 02:46:53 10° NE
Helios 1B rocket 3.6 02:40:41 10° NNE 02:44:31 39° E 02:48:20 10° S
Cosmos 2341 Rocket 4.2 02:40:17 10° N 02:46:43 79° E 02:53:07 10° SSE
Cosmos 2154 Rocket 4.3 02:44:00 10° NNW 02:50:04 49° W 02:56:00 10° SSW
BREEZE-M DEB (TANK) 3.5 02:47:13 16° SW 02:50:36 37° SSE 02:53:00 10° E
Meteor 2-1 Rocket 4.3 02:45:26 10° N 02:51:15 84° E 02:56:54 10° SSE
Cosmos 407 Rocket 3.9 02:47:03 10° NNW 02:52:23 68° ENE 02:57:37 10° SSE
SL-8 Rocket 4.3 02:47:06 10° N 02:53:27 74° E 02:59:45 10° SSE
Cosmos 1943 3.5 02:50:42 11° SSW 02:56:08 67° ESE 03:01:48 10° NNE
Cosmos 1328 4.0 02:52:19 10° S 02:56:15 73° E 03:00:14 10° NNE
Helios 1A 3.7 02:53:26 14° SSW 02:56:32 34° W 03:00:25 10° NNW
Cosmos 2237 Rocket 4.3 02:55:08 10° W 02:58:42 17° NW 03:02:18 10° N
Genesis I 4.0 02:55:42 10° NNW 02:59:44 59° NE 03:03:40 10° SE
Lacrosse 5 rocket 1.8 02:57:25 13° WSW 03:00:45 51° NNW 03:04:47 10° NE
Cosmos 1140 Rocket 3.6 02:58:03 10° NNW 03:03:21 86° ENE 03:08:36 10° SSE
SL-16 R/B 3.6 02:59:47 13° SW 03:03:59 25° W 03:09:03 10° NW
Lacrosse 4 Rocket 3.9 03:05:46 10° SSE 03:08:32 17° ESE 03:11:17 10° ENE
Resurs 1-4 Rocket 3.8 03:05:09 10° NNW 03:08:48 19° WNW 03:12:28 10° WSW
SeaSat 1 4.3 03:05:32 10° NE 03:09:39 26° ESE 03:13:43 10° SSE
Cosmos 1892 Rocket 3.7 03:05:35 10° S 03:10:01 81° E 03:14:32 10° N
Cosmos 1726 Rocket 3.5 03:09:03 10° NNW 03:13:29 71° W 03:17:49 10° S
Cosmos 1703 4.3 03:11:07 12° SW 03:14:11 30° WNW 03:17:41 10° NNW
Cosmos 1943 Rocket 3.6 03:12:40 10° NW 03:16:34 19° W 03:20:26 10° SW
FENGYUN 3A 4.0 03:12:17 10° NNE 03:17:40 69° ESE 03:23:02 10° S
Cosmos 2263 4.2 03:12:03 10° NNW 03:17:41 65° WSW 03:23:20 10° SSE
NOSS 3-3 (A) 3.9 03:13:34 10° SW 03:19:08 89° NW 03:25:41 10° NE
NOSS 3-3 (C) 3.9 03:13:40 10° SW 03:19:14 90° SSE 03:25:46 10° NE
ADEOS II 3.4 03:20:34 10° N 03:24:48 25° WNW 03:29:00 10° WSW
Cosmos 1825 4.0 03:21:36 10° SSE 03:24:53 30° E 03:28:11 10° NNE
IDEFIX/ARIANE 42P 3.7 03:21:12 10° N 03:25:40 29° WNW 03:30:08 10° WSW
SL-24 DEB 4.3 03:21:40 10° S 03:26:24 73° W 03:31:07 10° N
ARIANE 5 R/B 3.1 03:22:55 10° NNE 03:27:55 57° ESE 03:32:50 10° S
Cosmos 1624 Rocket 4.3 03:23:16 10° S 03:28:33 70° ESE 03:33:50 10° NNE
CBERS-1 4.2 03:25:46 10° N 03:30:49 61° WNW 03:35:51 10° SSW
Cosmos 2218 Rocket 4.1 03:29:04 10° NNW 03:35:15 66° W 03:41:28 10° S
MOS 1-B Rocket 4.0 03:32:05 10° S 03:37:32 52° W 03:43:10 10° NNW
DEBRIS 3.2 03:33:36 10° WNW 03:41:57 85° SSW 03:44:47 10° ESE
